Location: Brunembert
(50.7122°N, 1.8935°E)
Time: 10:33:00
(UTC+00:00)

OBJECT-B - Pass Details

Date: 22 April 2021
Orbit: 415 x 424 km, 97.0° (Epoch: 25 April)

Event Time Altitude Azimuth Distance (km) Brightness Sun altitude
Rises 19:54:01 0° 180° (S) 2,360 4.2 -8.6°
Reaches altitude 10° 19:56:03 10° 186° (S) 1,503 3.3 -8.9°
Maximum altitude 19:59:09 45° 261° (W) 588 1.9 -9.3°
Drops below altitude 10° 20:02:18 10° 336° (NNW) 1,522 4.6 -9.7°
Sets 20:04:22 0° 343° (NNW) 2,394 5.5 -10.0°
